User: anonymous   Login
Location: Holmes Observatory
(37.1039°N, 122.0513°W)
Time: 22:27:41
(UTC-07:00)
Language:

Cosmos 921 Rocket - Orbit

View from above orbital plane
View from above orbital plane
View from above satellite
View from above satellite

Ground track
Ground track

The orbit data is extracted from the following two-line orbital elements,

1 10096U 77055B   18174.63586243 +.00000043 +00000-0 +67617-5 0  9997
2 10096 075.8353 059.8330 0042738 339.7640 020.1854 14.88624482217314
Epoch (UTC): 23 June 2018 15:15:38
Eccentricity: 0.0042738
inclination: 75.8353°
perigee height: 572 km
apogee height: 632 km
right ascension of ascending node: 59.8330°
argument of perigee: 339.7640°
revolutions per day: 14.88624482
mean anomaly at epoch: 20.1854°
orbit number at epoch: 21731

The dashed part of the orbit path shows where the satellite is in the earth's shadow,  

DLR